Regional Weather Roundup
Issued by NWS Albany, NY

Home | Current Version | Previous Version | Text Only | Print | Product List | Glossary On
Versions: 1 2 3 4 5 6 7 8 9 10 11 12 13 14 15 16 17 18 19 20 21 22 23 24 25 26 27 28 29 30 31 32 33 34 35 36 37 38 39 40 41 42 43 44 45 46 47 48 49 50
000
ASUS41 KALY 241610
RWRALY

NEW YORK STATE HOURLY WEATHER ROUNDUP
NATIONAL WEATHER SERVICE ALBANY NY
1100 AM EST MON NOV 24 2014

NOTE: "FAIR" INDICATES FEW OR NO CLOUDS BELOW 12,000 FEET WITH NO
SIGNIFICANT WEATHER AND/OR NO OBSTRUCTIONS TO VISIBILITY.

NYZ032-033-038>043-046>054-057>066-NYZ062>081-241700-
EAST


CITY           SKY/WX    TMP DP  RH WIND       PRES   REMARKS
ALBANY         PTSUNNY   63  59  87 S17G23    29.57F
GLENS FALLS    CLOUDY    58  56  93 SW6       29.53F
POUGHKEEPSIE   CLOUDY    66  59  78 S9        29.62F
NEWBURGH       CLOUDY    64  61  88 S18G24    29.64F
MONTGOMERY     CLOUDY    67  58  72 SW12      29.60F
WHITE PLAINS     N/A     61  59  93 S9G16     29.66F FOG
ISLIP          FOG       61  59  93 S17G31    29.69F VSB 1/4
NEW YORK CITY  PTSUNNY   63  59  87 S10       29.66F
CENTRAL PARK   CLOUDY    65  60  84 VRB3      29.68F
$$

NYZ005>009-017-018-044>046-055-056-241700-
CENTRAL


CITY           SKY/WX    TMP DP  RH WIND       PRES   REMARKS
FULTON         PTSUNNY   67  52  58 S20G37    29.38F
SYRACUSE       PTSUNNY   70  53  54 S23G35    29.41F
ROME           PTSUNNY   66  56  70 S13G18    29.47F
ELMIRA         MOSUNNY   67  54  63 S20G31    29.44F
BINGHAMTON     PTSUNNY   63  53  70 S15G30    29.51F
MONTICELLO     CLOUDY    59  59 100 MISG      29.63F
$$

NYZ026>034-041>043-241700-
NORTH


CITY           SKY/WX    TMP DP  RH WIND       PRES   REMARKS
WATERTOWN      MOSUNNY   68  50  52 S20G28    29.35F
FORT DRUM      NOT AVBL
MASSENA        CLOUDY    65  53  65 S29G39    29.33F
SARANAC LAKE   PTSUNNY   59  53  80 SW24G32   29.42F
PLATTSBURGH    PTSUNNY   55  52  89 SE18      29.44F
$$

NYZ001>004-010>016-019>021-241700-
WEST


CITY           SKY/WX    TMP DP  RH WIND       PRES   REMARKS
NIAGARA FALLS  PTSUNNY   61  50  67 S20G33    29.25F
BUFFALO        PTSUNNY   62  50  64 S20G29    29.28F
DUNKIRK        CLOUDY    64  52  64 S22G39    29.28F
JAMESTOWN      CLOUDY    59  50  72 S17G29    29.35S
WELLSVILLE     CLOUDY    60  49  66 S16G29    29.43F
ROCHESTER      MOSUNNY   67  51  56 S22G35    29.32F
PENN YAN       SUNNY     65  52  62 S18G31    29.40F
$$

             KEY
       WCI = WIND CHILL INDEX
       VSB = VISIBILITY
       HX  = HEAT INDEX
$$



USA.gov is the U.S. government's official web portal to all federal, state and local government web resources and services.